Satellite-Ground Cal/Val Region Overpasses Predictions

Prediction of Satellite NPP Overpassing Cal/Val Region: PacNW

Region Location: (Latitude: 10.00, Longitude: 139.50) to (Latitude: 22.70, Longitude: 165.60).

Table of predicted overpasses for the next 14.0 days since TLE Epoch: 8/6/2023
Interval Starting Time Starting Location Ending Time Ending Location
1 08/06/2023 15:44:22 ( 22.70, 149.15) 08/06/2023 15:47:58 ( 10.01, 146.14)
2 08/07/2023 02:53:28 ( 10.04, 156.68) 08/07/2023 02:57:03 ( 22.67, 153.68)
3 08/07/2023 15:25:21 ( 22.66, 153.90) 08/07/2023 15:28:56 ( 10.04, 150.90)
4 08/08/2023 02:34:26 ( 10.02, 161.44) 08/08/2023 02:38:01 ( 22.65, 158.44)
5 08/08/2023 15:06:18 ( 22.68, 158.66) 08/08/2023 15:09:53 ( 10.06, 155.66)
6 08/09/2023 02:16:08 ( 12.65, 165.59) 08/09/2023 02:18:59 ( 22.68, 163.19)
7 08/09/2023 03:56:53 ( 10.01, 140.82) 08/09/2023 03:58:30 ( 15.71, 139.51)
8 08/09/2023 14:47:16 ( 22.70, 163.42) 08/09/2023 14:50:52 ( 10.02, 160.41)
9 08/10/2023 03:37:52 ( 10.05, 145.57) 08/10/2023 03:41:27 ( 22.67, 142.57)
10 08/10/2023 14:31:18 ( 11.86, 165.59) 08/10/2023 14:31:49 ( 10.04, 165.17)
11 08/10/2023 16:09:44 ( 22.65, 142.79) 08/10/2023 16:13:19 ( 10.03, 139.79)
12 08/11/2023 03:18:49 ( 10.03, 150.33) 08/11/2023 03:22:24 ( 22.65, 147.34)
13 08/11/2023 15:50:42 ( 22.67, 147.55) 08/11/2023 15:54:17 ( 10.05, 144.55)
14 08/12/2023 02:59:47 ( 10.01, 155.09) 08/12/2023 03:03:23 ( 22.70, 152.08)
15 08/12/2023 15:31:40 ( 22.69, 152.31) 08/12/2023 15:35:16 ( 10.01, 149.30)
16 08/13/2023 02:40:45 ( 10.06, 159.84) 08/13/2023 02:44:20 ( 22.68, 156.84)
17 08/13/2023 15:12:38 ( 22.64, 157.06) 08/13/2023 15:16:13 ( 10.02, 154.06)
18 08/14/2023 02:21:43 ( 10.04, 164.60) 08/14/2023 02:25:18 ( 22.67, 161.60)
19 08/14/2023 14:53:36 ( 22.66, 161.82) 08/14/2023 14:57:11 ( 10.04, 158.82)
20 08/15/2023 03:44:10 ( 10.04, 143.98) 08/15/2023 03:47:45 ( 22.66, 140.98)
21 08/15/2023 14:35:41 ( 18.68, 165.60) 08/15/2023 14:38:08 ( 10.05, 163.58)
22 08/15/2023 16:16:03 ( 22.66, 141.20) 08/15/2023 16:18:02 ( 15.68, 139.51)
23 08/16/2023 03:25:08 ( 10.02, 148.74) 08/16/2023 03:28:43 ( 22.65, 145.74)
24 08/16/2023 15:57:01 ( 22.67, 145.96) 08/16/2023 16:00:36 ( 10.05, 142.96)
25 08/17/2023 03:06:05 ( 10.01, 153.50) 08/17/2023 03:09:41 ( 22.70, 150.49)
26 08/17/2023 15:37:58 ( 22.68, 150.72) 08/17/2023 15:41:34 ( 10.01, 147.71)
27 08/18/2023 02:47:03 ( 10.00, 158.26) 08/18/2023 02:50:39 ( 22.69, 155.25)
28 08/18/2023 15:18:56 ( 22.69, 155.48) 08/18/2023 15:22:32 ( 10.02, 152.47)
29 08/19/2023 02:28:01 ( 10.05, 163.00) 08/19/2023 02:31:36 ( 22.68, 160.01)
30 08/19/2023 14:59:54 ( 22.64, 160.22) 08/19/2023 15:03:29 ( 10.02, 157.23)
